Coldwater, MI

1:01 PM EST on February 27, 2017 (GMT -0500)
Branch County Memorial

Weather History for KOEB - February, 2012

Change the Weather History Date:

Monday, February 27, 2012

  Actual Average (KJYM) Record (KJYM)
Temperature  
Mean Temperature 36 °F -  
Max Temperature 41 °F 38 °F 61 °F (1976)
Min Temperature 31 °F 18 °F -12 °F (1963)
Degree Days  
Heating Degree Days 29    
Moisture  
Dew Point 24 °F    
Average Humidity 64    
Maximum Humidity 76    
Minimum Humidity 51    
Precipitation  
Precipitation 0.00 in - - ()
Sea Level Pressure  
Sea Level Pressure 30.21 in    
Wind  
Wind Speed 12 mph (West)    
Max Wind Speed 24 mph    
Max Gust Speed 33 mph    
Visibility 10 miles    
Events      
Averages and records for this station are not official NWS values.
T = Trace of Precipitation, MM = Missing Value Source: NWS Daily Summary

Daily Weather History Graph

Daily Weather History Graph

Search for Another Location

Airport or City:

Trip Planner

Search our weather history database for the weather conditions in past years. The results will help you decide how hot, cold, wet, or windy it might be!

Date:

Astronomy

Feb. 27, 2012 Rise Set
Actual Time 7:19 AM EST 6:27 PM EST
Civil Twilight 6:51 AM EST 6:55 PM EST
Nautical Twilight 6:18 AM EST 7:27 PM EST
Astronomical Twilight 5:46 AM EST 8:00 PM EST
Moon 9:41 AM EST No Moon Set
Length of Visible Light 12h 04m
Length of Day
11h 08m
Waxing Crescent, 29% of the Moon is Illuminated
Feb 27
Waxing Crescent
Feb 29
First Quarter
Mar 8
Full
Mar 14
Last Quarter
Mar 22
New

Hourly Weather History & Observations

Time (EST) Temp. Windchill Dew Point Humidity Pressure Visibility Wind Dir Wind Speed Gust Speed Precip Events Conditions
12:14 AM 39.2 °F 32.5 °F 22.8 °F 52% 30.06 in 10.0 mi South 10.4 mph 16.1 mph N/A   Clear
12:35 AM 39.2 °F 33.0 °F 22.8 °F 52% 30.05 in 10.0 mi South 9.2 mph 17.3 mph N/A   Clear
12:54 AM 39.6 °F 33.5 °F 22.8 °F 51% 30.05 in 10.0 mi South 9.2 mph 17.3 mph N/A   Clear
1:15 AM 39.4 °F 33.2 °F 23.0 °F 52% 30.05 in 10.0 mi SSW 9.2 mph - N/A   Clear
1:35 AM 40.1 °F 32.7 °F 23.4 °F 51% 30.05 in 10.0 mi SSW 12.7 mph 18.4 mph N/A   Clear
1:55 AM 41.0 °F 33.1 °F 23.9 °F 51% 30.05 in 10.0 mi SSW 15.0 mph 21.9 mph N/A   Mostly Cloudy
2:15 AM 40.8 °F 34.1 °F 24.1 °F 51% 30.06 in 10.0 mi SW 11.5 mph - N/A   Mostly Cloudy
2:35 AM 39.9 °F 32.1 °F 24.4 °F 54% 30.07 in 10.0 mi WSW 13.8 mph - N/A   Scattered Clouds
2:54 AM 39.0 °F 31.8 °F 24.6 °F 56% 30.07 in 10.0 mi WSW 11.5 mph - N/A   Clear
3:15 AM 37.6 °F 31.6 °F 24.8 °F 60% 30.07 in 10.0 mi SW 8.1 mph - N/A   Clear
3:35 AM 37.4 °F 30.8 °F 25.3 °F 62% 30.08 in 10.0 mi WSW 9.2 mph - N/A   Clear
3:54 AM 37.6 °F 31.6 °F 25.7 °F 62% 30.07 in 10.0 mi WSW 8.1 mph - N/A   Clear
4:15 AM 37.4 °F 32.1 °F 26.4 °F 65% 30.08 in 10.0 mi WSW 6.9 mph - N/A   Scattered Clouds
4:35 AM 37.4 °F 32.8 °F 27.0 °F 66% 30.08 in 10.0 mi SW 5.8 mph - N/A   Overcast
4:54 AM 36.7 °F 30.5 °F 26.8 °F 67% 30.08 in 10.0 mi SW 8.1 mph - N/A   Mostly Cloudy
5:15 AM 35.8 °F 30.1 °F 26.6 °F 69% 30.08 in 10.0 mi SW 6.9 mph - N/A   Scattered Clouds
5:35 AM 35.6 °F 29.2 °F 26.6 °F 70% 30.08 in 10.0 mi SW 8.1 mph - N/A   Scattered Clouds
5:54 AM 35.4 °F 29.0 °F 26.6 °F 70% 30.09 in 10.0 mi SW 8.1 mph - N/A   Scattered Clouds
6:15 AM 34.7 °F 28.1 °F 26.2 °F 71% 30.09 in 10.0 mi WSW 8.1 mph - N/A   Scattered Clouds
6:35 AM 35.8 °F 29.4 °F 27.5 °F 72% 30.10 in 10.0 mi WSW 8.1 mph - N/A   Overcast
7:15 AM 36.1 °F 29.3 °F 26.1 °F 67% 30.10 in 10.0 mi WSW 9.2 mph - N/A   Overcast
7:34 AM 35.8 °F 30.1 °F 26.1 °F 68% 30.10 in 10.0 mi WSW 6.9 mph - N/A   Overcast
7:55 AM 35.8 °F 29.4 °F 25.7 °F 67% 30.11 in 10.0 mi SW 8.1 mph - N/A   Overcast
8:15 AM 35.6 °F 27.5 °F 24.6 °F 64% 30.11 in 10.0 mi WSW 11.5 mph - N/A   Scattered Clouds
8:35 AM 36.5 °F 28.2 °F 23.5 °F 59% 30.12 in 10.0 mi WSW 12.7 mph 19.6 mph N/A   Clear
8:55 AM 36.9 °F 28.7 °F 22.6 °F 56% 30.12 in 10.0 mi West 12.7 mph 20.7 mph N/A   Clear
9:14 AM 36.9 °F 27.5 °F 21.9 °F 55% 30.13 in 10.0 mi West 16.1 mph 24.2 mph N/A   Clear
9:35 AM 36.9 °F 27.5 °F 21.9 °F 55% 30.14 in 10.0 mi West 16.1 mph 26.5 mph N/A   Clear
9:55 AM 36.7 °F 26.3 °F 21.6 °F 54% 30.14 in 10.0 mi West 19.6 mph 26.5 mph N/A   Clear
10:15 AM 36.0 °F 24.2 °F 21.9 °F 57% 30.15 in 10.0 mi West 24.2 mph 32.2 mph N/A   Clear
10:35 AM 35.8 °F 24.5 °F 22.8 °F 59% 30.16 in 10.0 mi West 21.9 mph 28.8 mph N/A   Clear
10:55 AM 35.6 °F 24.2 °F 21.7 °F 57% 30.17 in 10.0 mi West 21.9 mph 27.6 mph N/A   Clear
11:14 AM 34.9 °F 23.3 °F 22.1 °F 60% 30.17 in 10.0 mi West 21.9 mph 28.8 mph N/A   Clear
11:35 AM 34.7 °F 23.1 °F 22.3 °F 61% 30.18 in 10.0 mi West 21.9 mph 31.1 mph N/A   Clear
11:55 AM 34.7 °F 22.8 °F 22.6 °F 61% 30.18 in 10.0 mi West 23.0 mph 29.9 mph N/A   Scattered Clouds
12:14 PM 34.2 °F 21.8 °F 22.5 °F 62% 30.20 in 10.0 mi West 24.2 mph 33.4 mph N/A   Scattered Clouds
12:35 PM 34.0 °F 21.5 °F 22.6 °F 63% 30.21 in 10.0 mi West 24.2 mph 31.1 mph N/A   Mostly Cloudy
12:55 PM 33.1 °F 20.9 °F 22.8 °F 66% 30.22 in 10.0 mi West 21.9 mph 33.4 mph N/A   Overcast
1:15 PM 32.5 °F 20.2 °F 22.5 °F 66% 30.24 in 10.0 mi West 21.9 mph 29.9 mph N/A   Overcast
1:35 PM 32.4 °F 20.9 °F 23.4 °F 69% 30.24 in 10.0 mi WNW 18.4 mph 23.0 mph N/A   Overcast
1:54 PM 32.0 °F 19.5 °F 22.6 °F 68% 30.25 in 10.0 mi West 21.9 mph 29.9 mph N/A   Overcast
2:15 PM 32.0 °F 20.1 °F 22.1 °F 67% 30.27 in 10.0 mi West 19.6 mph 32.2 mph N/A   Overcast
2:35 PM 31.8 °F 19.9 °F 22.3 °F 68% 30.28 in 10.0 mi West 19.6 mph 27.6 mph N/A   Overcast
2:54 PM 31.5 °F 18.5 °F 22.3 °F 69% 30.29 in 10.0 mi WNW 23.0 mph 29.9 mph N/A   Overcast
3:15 PM 31.5 °F 20.1 °F 22.6 °F 70% 30.30 in 10.0 mi WNW 17.3 mph 26.5 mph N/A   Overcast
3:35 PM 31.6 °F 20.7 °F 22.5 °F 69% 30.30 in 10.0 mi WNW 16.1 mph 23.0 mph N/A   Overcast
3:55 PM 31.6 °F 20.4 °F 22.3 °F 68% 30.31 in 10.0 mi WNW 17.3 mph 21.9 mph N/A   Overcast
4:15 PM 32.0 °F 22.5 °F 22.8 °F 69% 30.32 in 10.0 mi WNW 12.7 mph 19.6 mph N/A   Overcast
4:34 PM 32.0 °F 22.1 °F 22.8 °F 69% 30.33 in 10.0 mi WNW 13.8 mph 19.6 mph N/A   Overcast
4:55 PM 31.8 °F 21.4 °F 22.3 °F 68% 30.35 in 10.0 mi WNW 15.0 mph 20.7 mph N/A   Overcast
5:14 PM 32.0 °F 22.1 °F 22.6 °F 68% 30.36 in 10.0 mi WNW 13.8 mph 24.2 mph N/A   Overcast
5:35 PM 32.0 °F 22.1 °F 23.0 °F 69% 30.36 in 10.0 mi WNW 13.8 mph - N/A   Overcast
5:55 PM 32.0 °F 21.6 °F 23.0 °F 69% 30.37 in 10.0 mi WNW 15.0 mph 20.7 mph N/A   Overcast
6:15 PM 31.8 °F 21.8 °F 22.5 °F 68% 30.38 in 10.0 mi WNW 13.8 mph - N/A   Overcast
6:35 PM 31.6 °F 23.7 °F 23.0 °F 70% 30.39 in 10.0 mi WNW 9.2 mph - N/A   Overcast
6:55 PM 31.6 °F 25.1 °F 23.4 °F 71% 30.39 in 10.0 mi WNW 6.9 mph - N/A   Overcast
7:14 PM 31.6 °F 23.7 °F 23.5 °F 72% 30.39 in 10.0 mi WNW 9.2 mph - N/A   Overcast
7:35 PM 31.5 °F 24.9 °F 23.7 °F 73% 30.40 in 10.0 mi West 6.9 mph - N/A   Overcast
7:55 PM 31.5 °F 24.2 °F 23.9 °F 74% 30.41 in 10.0 mi West 8.1 mph - N/A   Overcast
8:14 PM 31.5 °F 24.2 °F 24.1 °F 74% 30.42 in 10.0 mi West 8.1 mph - N/A   Overcast
8:35 PM 31.6 °F 23.7 °F 23.7 °F 73% 30.43 in 10.0 mi West 9.2 mph - N/A   Overcast
8:55 PM 31.1 °F 23.7 °F 24.3 °F 76% 30.43 in 10.0 mi West 8.1 mph - N/A   Overcast
9:14 PM 31.1 °F 25.4 °F 24.3 °F 76% 30.43 in 10.0 mi West 5.8 mph - N/A   Overcast
9:35 PM 31.5 °F 24.9 °F 23.7 °F 73% 30.44 in 10.0 mi WNW 6.9 mph - N/A   Overcast
9:54 PM 31.5 °F 26.8 °F 24.4 °F 75% 30.45 in 10.0 mi WNW 4.6 mph - N/A   Overcast
10:15 PM 31.5 °F - 24.3 °F 75% 30.45 in 10.0 mi Calm Calm - N/A   Overcast
10:35 PM 31.3 °F - 24.4 °F 76% 30.46 in 10.0 mi Calm Calm - N/A   Overcast
10:54 PM 31.1 °F - 24.3 °F 76% 30.46 in 10.0 mi Calm Calm - N/A   Overcast
11:15 PM 30.2 °F - 24.8 °F 80% 30.46 in 10.0 mi Calm Calm - N/A   Overcast
11:34 PM 30.6 °F - 24.1 °F 77% 30.46 in 10.0 mi Calm Calm - N/A   Overcast
11:55 PM 30.9 °F - 23.2 °F 73% 30.46 in 10.0 mi Calm Calm - N/A   Overcast